Location: Fours
(44.3167°N, 6.7000°E)
Time: 19:24:00
(UTC+00:00)

Timation 2 Rocket - Pass Details

Date: 29 May 2022
Orbit: 904 x 1076 km, 70.0° (Epoch: 25 June)

Event Time Altitude Azimuth Distance (km) Brightness Sun altitude
Rises 20:46:49 0° 326° (NNW) 3,758 9.0 -14.1°
Reaches altitude 10° 20:49:32 10° 319° (NW) 2,828 7.9 -14.4°
Maximum altitude 20:55:36 39° 254° (WSW) 1,523 5.2 -15.1°
Enters shadow 21:01:44 10° 188° (S) 2,866 6.0 -15.7°
